Location: Antist
(43.1184°N, 0.1270°E)
Time: 13:23:12
(UTC+00:00)

STARLINK-1087 - Pass Details

Date: 19 January 2020
Orbit: 349 x 351 km, 53.0° (Epoch: 21 February)

Event Time Altitude Azimuth Distance (km) Brightness Sun altitude
Rises 18:08:04 0° 258° (WSW) 2,157 8.7 -13.4°
Reaches altitude 10° 18:10:13 10° 269° (W) 1,317 6.9 -13.7°
Maximum altitude 18:12:51 30° 334° (NNW) 668 4.2 -14.2°
Enters shadow 18:14:14 20° 21° (NNE) 892 4.4 -14.5°
